リニア-ニート彗星

224P/LINEAR-NEAT (2022)

English version
Home page
Updated on January 3, 2023

---------------------------------------------------------------------

・ プロフィール

・ 軌道要素

Epoch 2023 Feb. 25.0 TT = JDT 2460000.5
T 2022 Sept. 29.98478 TT                                Rudenko
q   2.0460572            (2000.0)            P               Q
n   0.15423967     Peri.   16.68040     +0.55370661     -0.81944436
a   3.4435415      Node    40.03831     +0.73531318     +0.39771007
e   0.4058276      Incl.   13.30575     +0.39079856     +0.41271980
P   6.39
>From 103 observations 2003 Nov. 20-2022 Dec. 29, mean residual 0".7.

・ 光度変化

        m1 = 15.7 + 5 logΔ + 10.0 log r

---------------------------------------------------------------------

軌道要素はM.P.E.C. 2022-Y232に掲載されたものです。
光度グラフはComet for Windowsで作成したものです。

---------------------------------------------------------------------

Copyright(C) Seiichi Yoshida (comet@aerith.net). All rights reserved.